Location: Ferchesar
(52.6477°N, 12.4298°E)
Time: 09:18:14
(UTC+01:00)

Vanguard 1 - Pass Details

Date: 16 December 2021
Orbit: 652 x 3830 km, 34.2° (Epoch: 16 January)

Event Time Altitude Azimuth Distance (km) Brightness Sun altitude
Rises 18:22:05 0° 174° (S) 5,279 13.9 -20.7°
Reaches altitude 10° 18:28:02 10° 151° (SSE) 4,955 13.5 -21.6°
Maximum altitude 18:34:10 14° 126° (SE) 5,245 13.3 -22.5°
Enters shadow 18:35:51 13° 120° (ESE) 5,413 13.4 -22.8°
